Regional Weather Roundup
Issued by NWS

Home | Current Version | Previous Version | Text Only | Print | Product List | Glossary Off
Versions: 1 2 3 4 5 6 7 8 9 10 11 12 13 14 15 16 17 18 19 20 21 22 23 24 25 26 27 28 29 30 31 32 33 34 35 36 37 38 39 40 41 42 43 44 45 46 47 48 49 50

000
ASUS43 KLOT 041908
RWRIL

ILLINOIS REGIONAL WEATHER ROUNDUP
NATIONAL WEATHER SERVICE CHICAGO/ROMEOVILLE IL
200 PM CDT TUE AUG 04 2015

NOTE: "FAIR" INDICATES FEW OR NO CLOUDS BELOW 12,000 FEET WITH NO
SIGNIFICANT WEATHER AND/OR OBSTRUCTIONS TO VISIBILITY.

* THESE STATIONS ARE NOT UNDER NWS QUALITY CONTROL. THEY ALSO MAY NOT
  REPORT WEATHER SUCH AS PRECIPITATION OR FOG.

ILZ001-002-007-009-015-016-024-042000-
NORTHWEST ILLINOIS

CITY           SKY/WX    TMP DP  RH WIND       PRES   REMARKS
MOLINE         CLOUDY    79  60  52 W12       30.02R HX  80
STERLING*      MOSUNNY   81  57  44 NW13      29.98F HX  81
SAVANNA*       MOSUNNY   81  53  38 W10       30.00F HX  80
$$

ILZ003-004-008-010-011-017-018-042000-
NORTH CENTRAL ILLINOIS

CITY           SKY/WX    TMP DP  RH WIND       PRES   REMARKS
ROCKFORD       CLOUDY    81  53  37 NW16      30.01R HX  80
FREEPORT*      MOSUNNY   78  55  44 NW12      30.02S
ROCHELLE*      MOSUNNY   79  55  42 NW12      30.01S
DE KALB*       MOSUNNY   79  57  47 NW12G18   30.01S HX  80
PERU*          PTSUNNY   78  53  40 W12       30.02S
$$

ILZ005-006-012>014-019>023-042000-
NORTHEAST ILLINOIS

CITY           SKY/WX    TMP DP  RH WIND       PRES   REMARKS
CHICAGO-OHARE  PTSUNNY   81  52  36 W16G22    29.97S HX  80
CHICAGO-MIDWAY PTSUNNY   83  52  34 W9G18     29.97R HX  82
AURORA         MOSUNNY   80  55  42 W9        30.00R HX  80
LANSING*       PTSUNNY   82  52  35 W12G18    29.97F HX  81
JOLIET*        MOSUNNY   82  56  40 W9        29.99R HX  82
WAUKEGAN       PTSUNNY   78  54  43 NW12      29.96S
DUPAGE AIRPORT MOSUNNY   79  53  40 W10       29.98S
KANKAKEE*      MOSUNNY   80  57  45 NW10      30.00S HX  80
WHEELING       PTSUNNY   80  51  36 NW12      29.98S HX  80
MORRIS*        MOSUNNY   80  56  44 NW14      29.99R HX  80
ROMEOVILLE*    MOSUNNY   80  55  42 W9        29.99R HX  80
$$

LMZ740>746-042000-
SOUTHERN LAKE MICHIGAN

STATION/POSITION SKY/WX   TEMP    WIND        PRES    VSBY  WAVE
                          AIR SEA DIR/SP/G                  HT/PER
                          (F)     (DEG/KT/KT) (MB)    (MI)  (FT/S)
HARRISON CRIB              77     300/ 11/ 14   N/A
BURNHAM HARBOR             80     240/  9/ 13   N/A
CALUMET HARBOR             79     230/  4/  9   N/A
BURNS HARBOR               75      20/  3/  4 1015.2F
MICHIGAN CITY              74     230/  3/  3   N/A
MICHIGAN CITY 6N           77 75   CALM  /  2   N/A           1
ST. JOSEPH                 73 74  270/  6/  6   N/A           1/ 3
$$

ILZ025>027-034>036-040-047-049-050-058-095>099-042000-
WEST-CENTRAL ILLINOIS

CITY           SKY/WX    TMP DP  RH WIND       PRES   REMARKS
QUINCY         CLOUDY    72  63  73 NE7       30.04F
GALESBURG*     CLOUDY    78  60  53 W10       30.04  HX  80
MACOMB*        CLOUDY    74  63  66 W9        30.07F
JACKSONVILLE*  HVY RAIN  71  67  87 SW6       30.05S
PITTSFIELD*    PTSUNNY   75  63  66 NE6       30.06F
$$

ILZ028>032-037-038-041>044-048-051>054-059>061-042000-
CENTRAL ILLINOIS

CITY           SKY/WX    TMP DP  RH WIND       PRES   REMARKS
PONTIAC        PTSUNNY   79  63  57 W10G16    30.02S HX  80
BLOOMINGTON    CLOUDY    80  59  48 W7G18     30.04R HX  81
DECATUR        CLOUDY    80  59  48 W7        30.03S HX  81
PEORIA         CLOUDY    82  57  42 W7        30.03S HX  82
LACON*         CLOUDY    79  59  50 W6        30.01S HX  80
LINCOLN*       CLOUDY    83  57  41 W7        30.02S HX  82
SPRINGFIELD    CLOUDY    78  64  61 NW7       30.04R HX  80
TAYLORVILLE    CLOUDY    75  64  69 CALM      30.03R
$$

ILZ033-039-045-046-055>057-062-063-042000-
EAST-CENTRAL ILLINOIS

CITY           SKY/WX    TMP DP  RH WIND       PRES   REMARKS
CHAMPAIGN      CLOUDY    80  59  48 SW6       30.03R HX  81
DANVILLE*      PTSUNNY   79  60  52 W8        29.99R HX  80
RANTOUL*       PTSUNNY   82  58  44 W8        30.02R HX  82
MATTOON        CLOUDY    81  59  47 N7        30.01S HX  81
PARIS*         CLOUDY    77  64  62 W7        30.02S
$$

ILZ079-100>102-042000-
SOUTHWEST ILLINOIS

CITY           SKY/WX    TMP DP  RH WIND       PRES   REMARKS
ALTON          PTSUNNY   84  68  58 CALM      30.00S HX  87
BELLEVILLE     MOSUNNY   88  73  62 VRB1      29.97S HX  96
CAHOKIA*       SUNNY     92  69  47 NW9       29.98S HX  97
SPARTA*        MOSUNNY   90  74  59 W6        29.99S HX  98
$$

ILZ064>066-069>071-074>076-080>082-084>086-088>090-092>094-042000-
SOUTH-CENTRAL ILLINOIS

CITY           SKY/WX    TMP DP  RH WIND       PRES   REMARKS
CARBONDALE     PTSUNNY   91  74  57 SW10      29.97S HX 100
CAIRO*         MOSUNNY   91  74  56 SW6       29.97F HX 101
EFFINGHAM*     PTSUNNY   83  62  49 W3        30.02S HX  84
MARION         MOSUNNY   91  73  55 SW12      29.98S HX 100
MT. VERNON     MOSUNNY   90  72  55 SW7       29.99S HX  96
CENTRALIA*     SUNNY     87  68  51 W3        29.99S HX  91
SALEM*         MOSUNNY   87  68  52 CALM      29.99F HX  91
METROPOLIS*    PTSUNNY   92  74  54 W6        29.98F HX 102
$$

ILZ067-068-072-073-078-083-087-091-042000-
SOUTHEAST ILLINOIS

CITY           SKY/WX    TMP DP  RH WIND       PRES   REMARKS
LAWRENCEVILLE  MOSUNNY   85  68  56 NW8       30.00S HX  88
FLORA*         MOSUNNY   85  66  53 SW5       29.99S HX  88
FAIRFIELD*     MOSUNNY   87  71  58 CALM      29.97S HAZE    HX  93
HARRISBURG*    MOSUNNY   92  74  55 W6        29.98S HX 101
ROBINSON*      PTSUNNY   82  65  57 NW3       30.01S HX  84
CARMI*         MOSUNNY   89  70  53 W3        29.97S HX  94
$$

ABBREVIATIONS USED IN REMARKS
   TC - TEMPERATURE IN CELSIUS
  WCI - WIND CHILL INDEX
   HX - HEAT INDEX
  VSB - VISIBILITY
$$



USA.gov is the U.S. government's official web portal to all federal, state and local government web resources and services.